This demonstration page uses our WeatherBlox Daily Observations layout. Learn more.

Left ArrowRight Arrow

Hourly Observations for July 27, 2021

Temp ( °F °C ) Dew Point ( °F °C ) Humidity (%) Winds ( mph kmh ) Pressure ( in mb ) Visibility ( mi km ) Precip ( " mm )
12:53 am 00:53 Clear 66 18.9 65 18.3 96 96 N N/A 30.04 1017 9 14 N/A
1:53 am 01:53 Clear 65 18.3 65 18.3 100 100 N N/A 30.04 1017 9 14 N/A
2:53 am 02:53 Clear 65 18.3 64 17.8 97 97 N N/A 30.04 1017 7 11 N/A
3:53 am 03:53 Clear with Mist and Fog 64 17.8 63 17.2 96 96 N N/A 30.04 1017 5 8 N/A
4:53 am 04:53 Clear with Mist and Fog 63 17.2 63 17.2 100 100 N N/A 30.04 1017 5 8 N/A
5:53 am 05:53 Clear with Mist and Fog 62 16.7 62 16.7 100 100 N N/A 30.04 1017 5 8 N/A
6:53 am 06:53 Sunny with Mist and Fog 62 16.7 62 16.7 100 100 N N/A 30.05 1018 4 6 N/A
7:53 am 07:53 Sunny 66 18.9 65 18.3 96 96 N N/A 30.06 1018 7 11 N/A
8:53 am 08:53 Sunny 73 22.8 68 20 84 84 N N/A 30.08 1019 7 11 N/A
9:53 am 09:53 Sunny 77 25 66 18.9 69 69 N N/A 30.09 1019 9 14 N/A
10:53 am 10:53 Sunny 82 27.8 67 19.4 60 60 N N/A 30.07 1018 10 16 N/A
11:53 am 11:53 Sunny 86 30 65 18.3 49 49 N N/A 30.07 1018 10 16 N/A
12:53 pm 12:53 Sunny 86 30 65 18.3 49 49 NNW 6 9 30.08 1019 10 16 N/A
1:53 pm 13:53 Sunny 87 30.6 63 17.2 45 45 N N/A 30.05 1018 10 16 N/A
2:53 pm 14:53 Sunny 88 31.1 64 17.8 45 45 VRB 6 9 30.06 1018 10 16 N/A
3:53 pm 15:53 Sunny 88 31.1 65 18.3 46 46 NNW 8 13 30.05 1018 10 16 N/A
4:53 pm 16:53 Sunny 88 31.1 64 17.8 45 45 N N/A 30.02 1017 10 16 N/A
5:53 pm 17:53 Sunny 88 31.1 69 20.6 54 54 N N/A 30.02 1017 10 16 N/A
6:53 pm 18:53 Sunny 85 29.4 68 20 57 57 N 5 7 30.02 1017 10 16 N/A
7:53 pm 19:53 Sunny 83 28.3 71 21.7 67 67 N N/A 30.01 1016 10 16 N/A
8:53 pm 20:53 Sunny 74 23.3 71 21.7 91 91 N N/A 30.01 1016 10 16 N/A
9:53 pm 21:53 Clear 71 21.7 69 20.6 94 94 N N/A 30.03 1017 10 16 N/A
10:53 pm 22:53 Clear 70 21.1 69 20.6 97 97 N N/A 30.04 1017 9 14 N/A
11:53 pm 23:53 Clear 69 20.6 68 20 96 96 N N/A 30.04 1017 7 11 N/A

Powered by AerisWeather